Distributed Energy Resource Document Library

Browse interconnection resource documents or download a PDF application.

Current Application Queue

APP ID Queue # Qualify Date Process Status DER Type and Size Sub - Fdr - Phs
APP1033 1 7/1/2019 10:21:04 AM Simplified Interconnected Solar Photovoltaic 15.00 kW 31 - 01 - C
APP1019 2 7/10/2019 1:15:02 PM Fast Track Interconnected Solar Photovoltaic 37.50 kW 61 - 04 - B
APP1201 3 7/16/2019 7:59:38 AM Fast Track Interconnected Solar Photovoltaic 37.50 kW 61 - 04 - B
APP1282 4 7/16/2019 9:48:59 PM Fast Track Interconnected Solar Photovoltaic 37.50 kW 62 - 01 - C
APP1290 5 7/17/2019 8:45:35 AM Fast Track Interconnected Solar Photovoltaic 25.00 kW 62 - 01 - C
APP1548 6 8/6/2019 7:53:12 AM Fast Track Interconnected Solar Photovoltaic 37.50 kW 60 - 01 - A
APP1549 7 8/6/2019 9:45:56 AM Fast Track Interconnected Solar Photovoltaic 19.00 kW 72 - 04 - B
APP1410 8 8/7/2019 1:24:10 PM Simplified Interconnected Solar Photovoltaic 6.38 kW 82 - 02 - B
APP1300 9 8/12/2019 3:23:02 PM Simplified Interconnected Solar Photovoltaic 6.00 kW 31 - 04 - A
APP1787 10 8/16/2019 1:27:45 PM Simplified Interconnected Solar Photovoltaic 7.60 kW 71 - 01 - C
APP1671 11 8/16/2019 2:20:53 PM Fast Track Interconnected Solar Photovoltaic 11.70 kW 21 - 05 - A
APP1795 12 8/21/2019 12:23:13 PM Simplified Interconnected Solar Photovoltaic 19.00 kW 51 - 04 - A
APP1887 13 8/23/2019 12:10:48 PM Simplified Interconnected Solar Photovoltaic 10.00 kW 11 - 03 - C
APP1594 14 8/26/2019 12:00:00 AM Fast Track Interconnected Solar Photovoltaic 37.50 kW 70 - 04 - B
APP2097 15 9/5/2019 2:43:18 PM Fast Track Interconnected Solar Photovoltaic 37.50 kW 70 - 02 - A
APP2211 16 9/17/2019 12:54:25 PM Fast Track DER Installation and Interconnection Solar Photovoltaic 1000.00 kW 11 - 04 - ABC
APP2263 17 9/17/2019 9:23:14 PM Fast Track Interconnected Solar Photovoltaic 37.50 kW 71 - 03 - C
APP1996 18 9/17/2019 10:33:10 PM Fast Track Interconnected Solar Photovoltaic 37.50 kW 22 - 02 - A
APP2262 19 9/18/2019 8:30:01 AM Fast Track Interconnected Solar Photovoltaic 37.50 kW 12 - 05 - B
APP2267 20 9/18/2019 12:04:57 PM Fast Track Interconnected Solar Photovoltaic 37.50 kW 71 - 03 - C
APP2268 21 9/18/2019 12:27:16 PM Fast Track Interconnected Solar Photovoltaic 37.50 kW 71 - 03 - C
APP2265 22 9/18/2019 1:32:12 PM Fast Track Interconnected Solar Photovoltaic 37.50 kW 71 - 03 - C
APP1670 23 9/18/2019 3:10:12 PM Simplified Interconnected Solar Photovoltaic 12.50 kW 70 - 01 - C
APP2255 24 9/19/2019 1:34:01 PM Simplified Interconnected Solar Photovoltaic 15.00 kW 61 - 02 - C
APP2294 25 9/20/2019 3:36:44 PM Fast Track Interconnected Solar Photovoltaic 30.00 kW 10 - 03 - C
APP2291 26 9/20/2019 4:25:31 PM Simplified Interconnected Solar Photovoltaic 11.40 kW 71 - 01 - C
APP2271 27 9/24/2019 5:35:22 PM Simplified Interconnected Solar Photovoltaic 11.80 kW 11 - 04 - C
APP2282 28 9/24/2019 7:53:06 PM Fast Track Interconnected Solar Photovoltaic 37.50 kW 70 - 04 - C
APP2386 29 10/2/2019 7:04:04 AM Fast Track Interconnected Solar Photovoltaic 37.50 kW 74 - 02 - A
APP2420 30 10/5/2019 9:53:45 AM Simplified Interconnected Solar Photovoltaic 9.00 kW 12 - 03 - C
APP2422 31 10/6/2019 7:57:30 PM Simplified Interconnected Solar Photovoltaic 7.60 kW 74 - 01 - C
APP2474 32 10/14/2019 11:31:03 AM Fast Track Interconnected Solar Photovoltaic 37.50 kW 10 - 01 - A
APP2419 33 10/15/2019 9:58:04 AM Simplified Interconnected Solar Photovoltaic 7.60 kW 71 - 03 - B
APP2495 34 10/22/2019 3:36:27 PM Fast Track Interconnected Solar Photovoltaic 37.50 kW 70 - 04 - A
APP2315 35 10/25/2019 7:40:31 AM Fast Track Interconnected Solar Photovoltaic 30.00 kW 61 - 02 - C
APP2475 36 10/25/2019 12:48:09 PM Fast Track Interconnected Solar Photovoltaic 37.50 kW 10 - 01 - A
APP2418 37 10/29/2019 8:42:48 AM Fast Track Interconnected Solar Photovoltaic 21.70 kW 72 - 05 - B
APP2418 38 10/29/2019 8:42:48 AM Fast Track Interconnected Solar Photovoltaic 21.70 kW 72 - 05 - B
APP2558 39 11/3/2019 6:17:22 PM Simplified Interconnected Solar Photovoltaic 10.00 kW 72 - 03 - C
APP2590 40 11/11/2019 5:59:37 PM Fast Track Interconnected Solar Photovoltaic 22.80 kW 70 - 02 - C
APP2591 41 11/11/2019 6:47:17 PM Fast Track Interconnected Solar Photovoltaic 12.00 kW 30 - 01 - C
APP2519 42 11/13/2019 9:36:37 PM Fast Track Interconnected Solar Photovoltaic 37.50 kW 61 - 04 - A
APP2602 43 11/14/2019 9:21:04 AM Fast Track Interconnected Solar Photovoltaic 37.50 kW 20 - 03 - A
APP2520 44 11/15/2019 4:16:02 PM Fast Track Interconnected Solar Photovoltaic 37.50 kW 61 - 04 - B
APP2594 45 11/20/2019 7:52:52 AM Simplified Interconnected Solar Photovoltaic 11.80 kW 82 - 02 - C
APP2562 46 12/17/2019 11:22:22 AM Simplified Interconnected Solar Photovoltaic 15.20 kW 32 - 03 - B
APP2720 47 1/7/2020 2:36:10 PM Fast Track Interconnected Solar Photovoltaic 35.80 kW 12 - 03 - C
APP2845 48 2/11/2020 12:10:32 PM Fast Track Interconnected Solar Photovoltaic 37.50 kW 31 - 01 - A
APP2900 49 2/28/2020 6:54:41 PM Simplified Interconnected Solar Photovoltaic 20.00 kW 31 - 04 - A
APP2903 50 2/28/2020 11:21:08 PM Fast Track Interconnected Solar Photovoltaic 20.00 kW 62 - 03 - C
APP2909 51 3/5/2020 8:30:01 AM Fast Track DER Installation and Interconnection Solar Photovoltaic 3000.00 kW 10 - 01 - ABC
APP2921 52 3/9/2020 8:20:59 AM Simplified Interconnected Solar Photovoltaic 5.00 kW 21 - 03 - B
APP2922 53 3/9/2020 10:50:40 AM Fast Track DER Installation and Interconnection Solar Photovoltaic 3000.00 kW 61 - 03 - ABC
APP2924 54 3/9/2020 9:06:21 PM Fast Track Interconnected Solar Photovoltaic 37.50 kW 11 - 03 - C
APP2923 55 3/17/2020 12:51:35 PM Fast Track DER Installation and Interconnection Solar Photovoltaic 2000.00 kW 72 - 05 - ABC
APP2902 56 3/18/2020 4:52:19 PM Simplified Interconnected Solar Photovoltaic 20.00 kW 61 - 01 - C
APP2959 57 3/20/2020 5:11:32 PM Simplified Interconnected Solar Photovoltaic 6.00 kW 51 - 01 - C
APP2987 58 3/29/2020 2:44:26 PM Fast Track Interconnected Solar Photovoltaic 37.50 kW 12 - 01 - B
APP2988 59 3/29/2020 6:12:58 PM Fast Track Interconnected Solar Photovoltaic 25.00 kW 71 - 01 - B
APP3068 60 4/28/2020 6:17:28 PM Simplified Interconnected Solar Photovoltaic 3.83 kW 74 - 04 - B
APP2940 61 4/30/2020 4:25:15 PM Fast Track Interconnected Solar Photovoltaic 15.00 kW 30 - 03 - C
APP3121 62 5/11/2020 9:08:34 PM Fast Track Interconnected Solar Photovoltaic 37.50 kW 13 - 04 - B
APP3135 63 5/15/2020 4:39:23 PM Simplified Interconnected Solar Photovoltaic 6.00 kW 12 - 02 - C
APP3143 64 5/19/2020 7:52:43 AM Fast Track Interconnected Solar Photovoltaic 37.50 kW 12 - 04 - B
APP3152 65 5/20/2020 8:29:31 PM Fast Track Interconnected Solar Photovoltaic 37.50 kW 11 - 02 - B
APP3206 66 6/8/2020 8:29:18 AM Fast Track Interconnected Solar Photovoltaic 37.50 kW 62 - 02 - C
APP3206 67 6/8/2020 8:29:18 AM Fast Track Interconnected Solar Photovoltaic 37.50 kW 62 - 02 - C
APP3189 68 6/10/2020 10:10:03 AM Simplified Interconnected Solar Photovoltaic 19.00 kW 20 - 01 - B
APP3228 69 6/10/2020 9:48:03 PM Fast Track Interconnected Solar Photovoltaic 37.50 kW 66 - 01 - C
APP3227 70 6/11/2020 6:00:29 PM Fast Track Interconnected Solar Photovoltaic 37.50 kW 60 - 03 - C
APP3235 71 6/14/2020 8:43:33 AM Fast Track Interconnected Solar Photovoltaic 11.40 kW 22 - 02 - C
APP3248 72 6/17/2020 8:36:16 AM Fast Track Interconnected Solar Photovoltaic 24.00 kW 32 - 03 - ABC
APP3226 73 6/17/2020 7:42:15 PM Fast Track Interconnected Solar Photovoltaic 37.50 kW 62 - 03 - B
APP3168 74 6/17/2020 8:00:34 PM Simplified Interconnected Solar Photovoltaic 9.00 kW 61 - 05 - A
APP3249 75 6/20/2020 11:03:46 AM Simplified Interconnected Solar Photovoltaic 7.60 kW 70 - 02 - B
APP3255 76 6/21/2020 4:17:23 PM Simplified Interconnected Solar Photovoltaic 5.00 kW 13 - 02 - A
APP3268 77 6/23/2020 4:55:50 PM Simplified Interconnected Solar Photovoltaic 8.20 kW 22 - 02 - A
APP3269 78 6/23/2020 5:41:13 PM Simplified Interconnected Solar Photovoltaic 7.20 kW 21 - 02 - A
APP3052 79 7/10/2020 12:35:00 PM Simplified Inspection and Testing Solar Photovoltaic 18.75 kW 11 - 03 - C
APP3324 80 7/12/2020 2:57:02 PM Fast Track Interconnected Solar Photovoltaic 36.00 kW 74 - 01 - A
APP3320 81 7/13/2020 7:24:19 PM Fast Track Interconnected Solar Photovoltaic 37.50 kW 11 - 02 - B
APP3322 82 7/14/2020 8:21:01 AM Fast Track Interconnected Solar Photovoltaic 37.50 kW 12 - 05 - C
APP3323 83 7/14/2020 11:23:52 AM Fast Track Interconnected Solar Photovoltaic 30.40 kW 71 - 03 - A
APP3328 84 7/14/2020 5:44:28 PM Simplified Interconnected Solar Photovoltaic 10.00 kW 10 - 03 - B
APP3337 85 7/15/2020 5:07:30 PM Simplified Interconnected Solar Photovoltaic 10.00 kW 10 - 02 - B
APP3357 86 7/22/2020 8:26:13 AM Simplified Interconnected Solar Photovoltaic 5.00 kW 22 - 02 - A
APP3356 87 7/22/2020 9:52:03 AM Simplified Interconnected Solar Photovoltaic kW 57 - 01 - A
APP3425 88 8/9/2020 8:06:52 PM Fast Track Interconnected Solar Photovoltaic 37.50 kW 71 - 03 - A
APP3413 89 8/10/2020 9:57:20 AM Fast Track Interconnected Solar Photovoltaic 27.50 kW 62 - 03 - C
APP3419 90 8/18/2020 5:43:32 PM Simplified Interconnected Solar Photovoltaic 12.50 kW 22 - 02 - C
APP3458 91 8/19/2020 11:30:09 AM Fast Track Interconnected Solar Photovoltaic 37.50 kW 11 - 02 - B
APP3472 92 8/24/2020 4:47:20 PM Simplified Interconnected Solar Photovoltaic 7.60 kW 62 - 02 - B
APP3480 93 8/26/2020 1:18:19 PM Simplified Interconnected Solar Photovoltaic 10.00 kW 33 - 02 - A
APP3478 94 8/26/2020 6:58:04 PM Fast Track Interconnected Solar Photovoltaic 25.00 kW 11 - 02 - B
APP3470 95 8/27/2020 3:17:07 PM Simplified Interconnected Solar Photovoltaic 7.80 kW 72 - 05 - C
APP3497 96 9/9/2020 3:20:06 PM Fast Track Interconnected Solar Photovoltaic 37.50 kW 70 - 03 - B
APP3539 97 9/11/2020 11:29:58 AM Simplified Interconnected Solar Photovoltaic 11.21 kW 57 - 01 - AC
APP3538 98 9/11/2020 6:14:02 PM Fast Track Interconnected Solar Photovoltaic 37.50 kW 65 - 01 - C
APP3557 99 9/13/2020 4:07:08 PM Fast Track Interconnected Solar Photovoltaic 37.50 kW 62 - 03 - C
APP3548 100 9/21/2020 9:46:18 AM Simplified Interconnected Solar Photovoltaic 14.61 kW 30 - 01 - C
APP3553 101 9/22/2020 9:25:45 PM Fast Track Interconnected Solar Photovoltaic 19.20 kW 72 - 01 - C
APP3668 102 9/28/2020 7:37:17 PM Fast Track Interconnected Solar Photovoltaic 30.00 kW 22 - 01 - C
APP3628 103 9/30/2020 8:05:10 AM Simplified Interconnected Solar Photovoltaic 6.00 kW 30 - 01 - C
APP3747 104 10/14/2020 11:17:58 AM Fast Track Interconnected Solar Photovoltaic 37.50 kW 61 - 02 - A
APP3784 105 10/19/2020 7:27:58 PM Fast Track Interconnected Solar Photovoltaic 37.50 kW 72 - 03 - A
APP3795 106 10/20/2020 10:59:17 AM Simplified Interconnected Solar Photovoltaic 10.00 kW 11 - 03 - B
APP3796 107 10/20/2020 11:36:20 AM Fast Track Interconnected Solar Photovoltaic 37.50 kW 33 - 04 - B
APP3860 108 10/31/2020 4:54:01 PM Fast Track Interconnected Solar Photovoltaic 37.50 kW 20 - 04 - C
APP3913 109 11/13/2020 9:53:15 AM Fast Track Interconnected Solar Photovoltaic 37.50 kW 74 - 02 - B
APP3897 110 11/13/2020 12:48:56 PM Fast Track Interconnected Solar Photovoltaic 25.00 kW 82 - 01 - A
APP3904 111 11/13/2020 4:40:07 PM Fast Track Interconnected Solar Photovoltaic 37.50 kW 82 - 01 - A
APP3937 112 11/25/2020 5:35:17 AM Fast Track Interconnected Solar Photovoltaic 22.80 kW 11 - 01 - A
APP3943 113 11/25/2020 9:42:41 PM Fast Track Interconnected Solar Photovoltaic 30.72 kW 61 - 04 - C
APP3919 114 12/3/2020 7:43:31 AM Fast Track Interconnected Solar Photovoltaic 19.60 kW 13 - 04 - A
APP3915 115 12/15/2020 7:28:46 AM Fast Track Interconnected Solar Photovoltaic 37.50 kW 51 - 02 - B
APP3992 116 12/16/2020 4:06:10 PM Fast Track Interconnected Solar Photovoltaic 14.40 kW 72 - 05 - B
APP4008 117 12/18/2020 3:31:52 PM Simplified Interconnected Solar Photovoltaic 10.00 kW 30 - 01 - B
APP4047 118 1/12/2021 9:41:03 AM Fast Track Interconnected Solar Photovoltaic 37.50 kW 31 - 01 - A
APP4035 119 1/14/2021 9:05:12 PM Simplified Interconnected Solar Photovoltaic 11.40 kW 31 - 01 - A
APP4041 120 1/18/2021 1:02:28 PM Simplified Interconnected Solar Photovoltaic 7.60 kW 30 - 03 - C
APP4053 121 1/18/2021 1:05:47 PM Simplified Interconnected Solar Photovoltaic 10.00 kW 33 - 02 - B
APP4100 122 2/19/2021 4:06:35 PM Fast Track Interconnected Solar Photovoltaic 37.50 kW 88 - 04 - B
APP4214 123 2/23/2021 1:15:23 PM Simplified Interconnected Solar Photovoltaic 11.40 kW 62 - 02 - B
APP4238 124 3/3/2021 12:21:11 PM Fast Track Interconnected Solar Photovoltaic 28.80 kW 63 - 01 - C
APP4200 125 3/10/2021 9:50:51 AM Simplified Interconnected Solar Photovoltaic 6.00 kW 84 - 02 - B
APP4303 126 3/16/2021 7:50:32 PM Simplified Interconnected Solar Photovoltaic 13.20 kW 12 - 01 - B
APP4265 127 3/17/2021 8:33:06 AM Fast Track Interconnected Solar Photovoltaic 22.80 kW 88 - 04 - C
APP4264 128 3/17/2021 11:04:05 AM Fast Track Interconnected Solar Photovoltaic 37.50 kW 88 - 04 - A
APP4316 129 3/18/2021 1:14:48 PM Fast Track Interconnected Solar Photovoltaic 21.40 kW 95 - 04 - A
APP4306 130 3/20/2021 10:41:13 AM Fast Track Interconnected Solar Photovoltaic 30.40 kW 70 - 04 - C
APP4309 131 3/20/2021 6:31:30 PM Fast Track Interconnected Solar Photovoltaic 30.00 kW 11 - 03 - A
APP4293 132 3/21/2021 8:30:00 PM Simplified Interconnected Solar Photovoltaic 5.90 kW 94 - 01 - C
APP4332 133 3/22/2021 2:01:50 PM Simplified DER Installation and Interconnection Solar Photovoltaic 17.56 kW 22 - 01 - C
APP4280 134 3/25/2021 7:58:03 PM Simplified Pending Approval to Operate Solar Photovoltaic 15.30 kW 95 - 03 - C
APP4281 135 3/26/2021 10:47:04 AM Fast Track DER Installation and Interconnection Solar Photovoltaic 30.70 kW 95 - 03 - C
APP4324 136 3/28/2021 9:11:45 AM Fast Track Interconnected Solar Photovoltaic 11.40 kW 93 - 03 - A
APP4284 137 3/29/2021 4:47:16 PM Fast Track Facilities Construction Solar Photovoltaic 100.00 kW 95 - 03 - C
APP4376 138 3/30/2021 10:20:58 AM Simplified Interconnected Solar Photovoltaic 1.20 kW 88 - 02 - C
APP4375 139 3/30/2021 11:20:03 AM Simplified Interconnected Solar Photovoltaic 7.60 kW 98 - 04 - C
APP4305 140 3/30/2021 9:38:34 PM Fast Track Interconnected Solar Photovoltaic 16.20 kW 13 - 01 - C
APP4385 141 3/31/2021 7:01:16 PM Simplified Interconnected Solar Photovoltaic 11.40 kW 65 - 01 - C
APP4379 142 4/1/2021 8:38:22 AM Fast Track Interconnected Solar Photovoltaic 30.00 kW 83 - 02 - B
APP4382 143 4/1/2021 8:39:39 AM Fast Track Interconnected Solar Photovoltaic 30.00 kW 83 - 04 - B
APP4384 144 4/1/2021 8:56:19 AM Fast Track Interconnected Solar Photovoltaic 11.40 kW 62 - 02 - A
APP4396 145 4/6/2021 7:40:36 AM Simplified Interconnected Solar Photovoltaic 7.60 kW 61 - 03 - B
APP4424 146 4/12/2021 7:44:12 PM Fast Track Interconnected Solar Photovoltaic 37.50 kW 83 - 01 - C
APP4423 147 4/12/2021 7:47:03 PM Fast Track Interconnected Solar Photovoltaic 37.50 kW 83 - 01 - A
APP4446 148 4/19/2021 11:25:39 AM Fast Track Interconnected Solar Photovoltaic 37.50 kW 30 - 04 - A
APP4338 149 4/19/2021 8:17:11 PM Fast Track Inspection and Testing Solar Photovoltaic 53.30 kW 84 - 02 - A
APP4450 150 4/20/2021 11:06:45 AM Fast Track Facilities Construction Solar Photovoltaic 10.25 kW 13 - 03 - A
APP4460 151 4/21/2021 3:29:02 PM Fast Track Facilities Construction Solar Photovoltaic 13.27 kW 88 - 02 - B
APP4483 152 4/26/2021 9:36:12 PM Fast Track Interconnected Solar Photovoltaic 7.60 kW 88 - 01 - C
APP4490 153 4/27/2021 3:44:36 PM Fast Track Interconnected Solar Photovoltaic 37.50 kW 32 - 02 - ABC
APP4484 154 4/28/2021 10:08:21 PM Simplified Interconnected Solar Photovoltaic 11.40 kW 88 - 01 - C
APP4514 155 5/1/2021 2:40:08 PM Fast Track Interconnected Solar Photovoltaic 37.50 kW 11 - 01 - C
APP4055 156 5/5/2021 7:36:43 PM Simplified Interconnected Solar Photovoltaic 5.00 kW 51 - 01 - A
APP4467 157 5/5/2021 7:37:08 PM Fast Track Pending Contract (Customer) Solar Photovoltaic 11.40 kW 81 - 04 - ABC
APP4528 158 5/6/2021 10:41:38 AM Simplified Interconnected Solar Photovoltaic 12.50 kW 30 - 01 - B
APP4544 159 5/7/2021 4:47:18 PM Fast Track DER Installation and Interconnection Solar Photovoltaic 30.00 kW 52 - 01 - C
APP4536 160 5/12/2021 6:40:48 AM Fast Track Facilities Construction Solar Photovoltaic 37.50 kW 61 - 03 - A
APP4451 161 5/19/2021 2:29:49 PM Simplified DER Installation and Interconnection Solar Photovoltaic 7.67 kW 93 - 03 - A
APP4380 162 5/20/2021 10:17:41 AM Fast Track DER Installation and Interconnection Solar Photovoltaic 30.00 kW 87 - 01 - C
APP4589 163 5/20/2021 4:28:37 PM Simplified Interconnected Solar Photovoltaic 6.78 kW 91 - 03 - C
APP4553 164 5/24/2021 9:18:22 AM Simplified DER Installation and Interconnection Solar Photovoltaic 15.00 kW 51 - 01 - C
APP4596 165 5/24/2021 9:31:14 AM Fast Track Interconnected Solar Photovoltaic 37.50 kW 70 - 03 - A
APP4611 166 5/26/2021 10:44:28 AM Fast Track Inspection and Testing Solar Photovoltaic 26.55 kW 32 - 03 - C
APP4612 167 6/1/2021 1:04:09 PM Fast Track Interconnected Solar Photovoltaic 10.00 kW 31 - 01 - B
APP4654 168 6/9/2021 3:47:43 PM Fast Track Interconnected Solar Photovoltaic 37.50 kW 11 - 02 - B
APP4653 169 6/10/2021 7:52:36 PM Fast Track Final Accounting Solar Photovoltaic 37.50 kW 51 - 03 - B
APP4676 170 6/11/2021 1:30:14 PM Simplified Facilities Construction Solar Photovoltaic 8.20 kW 84 - 01 - C
APP4678 171 6/14/2021 9:07:46 AM Fast Track Pending Contract (Customer) Solar Photovoltaic 37.50 kW 84 - 01 - A
APP4679 172 6/14/2021 11:30:49 AM Fast Track DER Installation and Interconnection Solar Photovoltaic 37.50 kW 82 - 04 - A
APP4680 173 6/16/2021 4:35:25 PM Simplified Pending Contract (Utility) Solar Photovoltaic 11.21 kW 93 - 04 - C
APP4698 174 6/17/2021 5:13:47 PM Fast Track Pending Contract (Customer) Solar Photovoltaic 37.50 kW 21 - 04 - A
APP4734 175 6/25/2021 6:41:18 PM Simplified Pending Contract (Utility) Solar Photovoltaic 10.62 kW 88 - 01 - B
APP4736 176 7/6/2021 4:38:12 PM Simplified Pending Contract (Customer) Solar Photovoltaic 3.75 kW 95 - 03 - A
APP4770 177 7/7/2021 8:59:49 AM Simplified DER Installation and Interconnection Solar Photovoltaic 15.00 kW 81 - 04 - C
APP4771 178 7/9/2021 11:09:43 AM Simplified Pending Contract (Customer) Solar Photovoltaic 3.50 kW 95 - 03 - A
APP4794 179 7/13/2021 11:25:58 AM Simplified DER Installation and Interconnection Solar Photovoltaic 5.31 kW 98 - 04 - B
APP4818 180 7/14/2021 5:28:13 PM Fast Track Pending Engineer Review Solar Photovoltaic 37.50 kW 71 - 01 - B
APP4816 181 7/14/2021 5:47:56 PM Fast Track Pending Engineer Review Solar Photovoltaic 37.50 kW 71 - 01 - C
APP4819 182 7/14/2021 9:09:37 PM Fast Track Pending Engineer Review Solar Photovoltaic 37.50 kW 11 - 01 - C
APP4821 183 7/15/2021 6:52:13 AM Fast Track Pending Engineer Review Solar Photovoltaic 37.50 kW 70 - 03 - C
APP4805 184 7/15/2021 8:38:07 AM Fast Track Pending Initial Review Solar Photovoltaic 36.40 kW - -
APP4836 185 7/20/2021 6:49:44 PM Fast Track Pending Contract (Customer) Solar Photovoltaic 11.40 kW 21 - 03 - A
APP4834 186 7/21/2021 11:05:31 AM Fast Track Pending Engineer Review Solar Photovoltaic 12.50 kW 62 - 01 - C
APP4849 187 7/22/2021 1:30:27 PM Simplified Pending Engineer Review Solar Photovoltaic 2.06 kW 98 - 04 - A
APP4835 188 7/26/2021 2:36:42 PM Simplified Pending Engineer Review Solar Photovoltaic 15.20 kW 33 - 02 - C
APP4857 189 7/29/2021 6:54:08 AM Fast Track Pending Engineer Review Solar Photovoltaic 37.50 kW 51 - 02 - C

 

 

  © 2021 - Application developed and maintained by STAR Energy Services LLC